When you browse on this site, cookies collect data to enhance your experience and personalize the content and advertising you see.
Visit our Privacy Policy to learn more. By continuing to use the site, you agree to this use of cookies and data.
  • In Hungary
  • List of Countries
  • For 7 days
  • Water Temperature
  • Satellite Maps
  • Weather Map
  • News
  • Weather Widgets
  • user-avatar
    Login

    Hourly Weather Klepaczew

    Today, 19 April, Friday

    Time Temperature Precipitation Wind Pressure Humidity
    00:00 +10°C° 0 mm 3 mps 758 mmHg 64%
    01:00 +9°C° 0 mm 3 mps 759 mmHg 66%
    02:00 +9°C° 0 mm 3 mps 759 mmHg 68%
    03:00 +8°C° 0 mm 3 mps 759 mmHg 70%
    04:00 +8°C° 0 mm 3 mps 759 mmHg 72%
    05:00 +7°C° 0 mm 2 mps 759 mmHg 74%
    06:00 +8°C° 0 mm 3 mps 759 mmHg 69%
    07:00 +9°C° 0 mm 3 mps 759 mmHg 64%
    08:00 +12°C° 0 mm 2 mps 760 mmHg 58%
    09:00 +13°C° 0 mm 3 mps 760 mmHg 52%
    10:00 +14°C° 0 mm 3 mps 760 mmHg 45%
    11:00 +17°C° 0 mm 4 mps 760 mmHg 38%
    12:00 +17°C° 0 mm 4 mps 760 mmHg 36%
    13:00 +18°C° 0 mm 4 mps 760 mmHg 34%
    14:00 +19°C° 0 mm 4 mps 760 mmHg 32%
    15:00 +18°C° 0 mm 4 mps 759 mmHg 33%
    16:00 +18°C° 0 mm 4 mps 759 mmHg 34%
    17:00 +18°C° 0 mm 3 mps 759 mmHg 35%
    18:00 +16°C° 0 mm 3 mps 759 mmHg 40%
    19:00 +14°C° 0 mm 2 mps 759 mmHg 44%
    20:00 +13°C° 0 mm 1 mps 759 mmHg 49%
    21:00 +12°C° 0 mm 1 mps 759 mmHg 51%
    22:00 +11°C° 0 mm 1 mps 759 mmHg 53%
    23:00 +9°C° 0 mm 0 mps 759 mmHg 55%

    Tomorrow, 20 April, Saturday

    Time Temperature Precipitation Wind Pressure Humidity
    00:00 +9°C° 0 mm 0 mps 759 mmHg 56%
    01:00 +8°C° 0 mm 0 mps 759 mmHg 57%
    02:00 +8°C° 0 mm 0 mps 759 mmHg 57%
    03:00 +7°C° 0 mm 0 mps 758 mmHg 59%
    04:00 +8°C° 0 mm 1 mps 758 mmHg 61%
    05:00 +8°C° 0 mm 1 mps 758 mmHg 63%
    06:00 +9°C° 0 mm 1 mps 758 mmHg 61%
    07:00 +10°C° 0 mm 1 mps 758 mmHg 59%
    08:00 +12°C° 0 mm 2 mps 758 mmHg 57%
    09:00 +13°C° 0 mm 2 mps 758 mmHg 54%
    10:00 +14°C° 0 mm 3 mps 757 mmHg 50%
    11:00 +16°C° 0 mm 3 mps 757 mmHg 46%
    12:00 +17°C° 0 mm 3 mps 757 mmHg 42%
    13:00 +17°C° 0 mm 3 mps 756 mmHg 38%
    14:00 +18°C° 0 mm 4 mps 756 mmHg 34%
    15:00 +18°C° 0 mm 4 mps 756 mmHg 35%
    16:00 +17°C° 0 mm 4 mps 755 mmHg 36%
    17:00 +17°C° 0 mm 4 mps 755 mmHg 36%
    18:00 +15°C° 0 mm 4 mps 755 mmHg 42%
    19:00 +14°C° 0 mm 3 mps 755 mmHg 48%
    20:00 +13°C° 0 mm 3 mps 755 mmHg 54%
    21:00 +12°C° 0.1 mm 3 mps 755 mmHg 62%
    22:00 +11°C° 0.1 mm 3 mps 755 mmHg 69%
    23:00 +10°C° 0.1 mm 2 mps 755 mmHg 77%

    Day after tomorrow, 21 April, Sunday

    Time Temperature Precipitation Wind Pressure Humidity
    00:00 +9°C° 0 mm 2 mps 754 mmHg 81%
    01:00 +8°C° 0 mm 2 mps 754 mmHg 84%
    02:00 +7°C° 0 mm 3 mps 754 mmHg 88%
    03:00 +5°C° 0 mm 3 mps 754 mmHg 89%
    04:00 +5°C° 0 mm 3 mps 753 mmHg 90%
    05:00 +4°C° 0 mm 3 mps 753 mmHg 90%
    06:00 +5°C° 0 mm 3 mps 753 mmHg 85%
    07:00 +8°C° 0 mm 3 mps 753 mmHg 80%
    08:00 +9°C° 0 mm 3 mps 753 mmHg 74%
    09:00 +10°C° 0 mm 3 mps 753 mmHg 67%
    10:00 +12°C° 0 mm 3 mps 753 mmHg 59%
    11:00 +13°C° 0 mm 3 mps 752 mmHg 52%
    12:00 +13°C° 0.3 mm 3 mps 752 mmHg 51%
    13:00 +14°C° 0.3 mm 3 mps 752 mmHg 50%
    14:00 +14°C° 0.3 mm 3 mps 752 mmHg 49%
    15:00 +14°C° 0.4 mm 3 mps 751 mmHg 49%
    16:00 +14°C° 0.4 mm 2 mps 751 mmHg 49%
    17:00 +14°C° 0.4 mm 2 mps 751 mmHg 50%
    18:00 +13°C° 0 mm 2 mps 751 mmHg 57%
    19:00 +10°C° 0 mm 2 mps 751 mmHg 64%
    20:00 +9°C° 0 mm 2 mps 751 mmHg 71%
    21:00 +9°C° 0 mm 2 mps 751 mmHg 75%
    22:00 +8°C° 0 mm 2 mps 751 mmHg 79%
    23:00 +8°C° 0 mm 2 mps 751 mmHg 83%

    22 April, Monday

    Time Temperature Precipitation Wind Pressure Humidity
    00:00 +7°C° 0 mm 3 mps 752 mmHg 85%
    01:00 +7°C° 0 mm 3 mps 752 mmHg 88%
    02:00 +6°C° 0 mm 4 mps 752 mmHg 91%
    03:00 +6°C° 0 mm 4 mps 753 mmHg 89%
    04:00 +6°C° 0 mm 5 mps 753 mmHg 87%
    05:00 +6°C° 0 mm 5 mps 753 mmHg 85%
    06:00 +7°C° 0 mm 5 mps 754 mmHg 77%
    07:00 +8°C° 0 mm 6 mps 754 mmHg 69%
    08:00 +9°C° 0 mm 7 mps 755 mmHg 61%
    09:00 +10°C° 0 mm 7 mps 755 mmHg 55%
    10:00 +12°C° 0 mm 8 mps 755 mmHg 50%
    11:00 +13°C° 0 mm 8 mps 755 mmHg 44%
    12:00 +13°C° 0 mm 8 mps 755 mmHg 43%
    13:00 +15°C° 0 mm 8 mps 755 mmHg 42%
    14:00 +15°C° 0 mm 8 mps 755 mmHg 41%
    15:00 +15°C° 0 mm 8 mps 755 mmHg 42%
    16:00 +13°C° 0 mm 8 mps 755 mmHg 43%
    17:00 +13°C° 0 mm 8 mps 755 mmHg 44%
    18:00 +12°C° 0 mm 7 mps 755 mmHg 48%
    19:00 +11°C° 0 mm 6 mps 755 mmHg 51%
    20:00 +9°C° 0 mm 5 mps 755 mmHg 55%
    21:00 +9°C° 0 mm 6 mps 755 mmHg 55%
    22:00 +8°C° 0 mm 6 mps 755 mmHg 55%
    23:00 +8°C° 0 mm 6 mps 755 mmHg 56%

    23 April, Tuesday

    Time Temperature Precipitation Wind Pressure Humidity
    00:00 +8°C° 0 mm 6 mps 755 mmHg 57%
    01:00 +7°C° 0 mm 6 mps 755 mmHg 58%
    02:00 +7°C° 0 mm 6 mps 755 mmHg 59%
    03:00 +7°C° 0 mm 6 mps 755 mmHg 61%
    04:00 +5°C° 0 mm 6 mps 755 mmHg 62%
    05:00 +5°C° 0 mm 6 mps 755 mmHg 63%
    06:00 +6°C° 0 mm 7 mps 755 mmHg 60%
    07:00 +7°C° 0 mm 8 mps 755 mmHg 57%
    08:00 +8°C° 0 mm 9 mps 755 mmHg 54%
    09:00 +10°C° 0 mm 9 mps 755 mmHg 50%
    10:00 +12°C° 0 mm 9 mps 755 mmHg 46%
    11:00 +13°C° 0 mm 10 mps 755 mmHg 43%
    12:00 +14°C° 0 mm 10 mps 755 mmHg 42%
    13:00 +14°C° 0 mm 10 mps 754 mmHg 41%
    14:00 +16°C° 0 mm 10 mps 754 mmHg 40%
    15:00 +16°C° 0 mm 9 mps 754 mmHg 41%
    16:00 +16°C° 0 mm 9 mps 753 mmHg 43%
    17:00 +16°C° 0 mm 9 mps 753 mmHg 44%
    18:00 +13°C° 0 mm 8 mps 753 mmHg 48%
    19:00 +12°C° 0 mm 7 mps 753 mmHg 52%
    20:00 +11°C° 0 mm 6 mps 753 mmHg 56%
    21:00 +10°C° 0 mm 6 mps 753 mmHg 56%
    22:00 +10°C° 0 mm 7 mps 753 mmHg 57%
    23:00 +10°C° 0 mm 7 mps 753 mmHg 58%

    24 April, Wednesday

    Time Temperature Precipitation Wind Pressure Humidity
    00:00 +9°C° 0 mm 7 mps 753 mmHg 59%
    01:00 +9°C° 0 mm 7 mps 753 mmHg 60%
    02:00 +8°C° 0 mm 7 mps 753 mmHg 61%
    03:00 +8°C° 0 mm 7 mps 753 mmHg 61%
    04:00 +8°C° 0 mm 7 mps 753 mmHg 61%
    05:00 +8°C° 0 mm 7 mps 753 mmHg 62%
    06:00 +7°C° 0 mm 8 mps 753 mmHg 59%
    07:00 +8°C° 0 mm 9 mps 753 mmHg 56%
    08:00 +8°C° 0 mm 9 mps 753 mmHg 53%
    09:00 +11°C° 0 mm 10 mps 753 mmHg 52%
    10:00 +12°C° 0 mm 10 mps 753 mmHg 50%
    11:00 +13°C° 0 mm 10 mps 753 mmHg 48%
    12:00 +14°C° 0 mm 10 mps 753 mmHg 48%
    13:00 +16°C° 0 mm 10 mps 753 mmHg 47%
    14:00 +16°C° 0 mm 10 mps 752 mmHg 47%
    15:00 +16°C° 0 mm 9 mps 752 mmHg 48%
    16:00 +16°C° 0 mm 9 mps 752 mmHg 50%
    17:00 +16°C° 0 mm 9 mps 752 mmHg 52%
    18:00 +15°C° 0 mm 8 mps 752 mmHg 55%
    19:00 +14°C° 0 mm 7 mps 752 mmHg 58%
    20:00 +13°C° 0 mm 6 mps 752 mmHg 62%
    21:00 +13°C° 0 mm 6 mps 752 mmHg 64%
    22:00 +11°C° 0 mm 6 mps 752 mmHg 66%
    23:00 +11°C° 0 mm 6 mps 752 mmHg 68%
    Show more